Showing default

TRANSIT 4B, 202

Orbit data source: Space-Track

TRANSIT 4B, 202 is a payload satellite owned by USN BuWeps (US) in LEO that was launched on Wed, 15 Nov 1961 UTC via a THOR ABLESTAR launch vehicle from the Air Force Eastern Test Range (AFETR). Payload-class satellites include a variety of spacecraft equipped with specific instruments for various scientific and technological missions. These include communications satellites like Starlink; space stations such as the ISS; scientific satellites like the Hubble; Earth observation satellites from companies like Planet Labs, Umbra, and HawkEye 360; GPS; miniature CubeSats for education and research; and military/defense satellites.

Loading next visibility...
Identifier
202, 1961-031A
Orbit
LEO
Country
Flag of USUS
Related business
Manufacturer
APL
Mission
Spacecraft
Bus & Motor
TRANSIT 4, Unknown motor
Mass
89 kg wet, 89 kg dry
Launch date (UTC)
1961-11-15 (64 years ago)
Launch vehicle
THOR ABLESTAR
Launch site
Air Force Eastern Test Range (AFETR)
Object type
Payload
Rocket body
Debris
Shape & HBR
Unknown
Radar Cross Section
Large (>1 m²)

Expand to show TLE details & history
Last TLE update: 1 day ago

TLE from 1 day ago
0 TRANSIT 4B
1 00202U 61031A   25307.60661098  .00000096  00000-0  88527-4 0  9997
2 00202  32.4387  52.1849 0101423 301.2724  57.7997 13.63768314190187
Epoch: 2025-11-03T14:33Z
TLE epoch observation values (Epoch: 2025-11-03T14:33:31.188Z)
Latitude
-0.00001°
Longitude
150.69936°
Altitude
981.332 km
Speed
7.383 km/s
True Right ascension
03h 28m 44s
True Declination
0° 00' 00"
Sunlit
Object was in full shadow at epoch
Visualization orbit readout
Latitude
Unknown
Longitude
Unknown
Altitude
Unknown
Speed
Unknown
Apparent Right ascension
Unknown
Apparent Declination
Unknown
Sunlit
N/A
Visualization observer readout
Local Sidereal Time
17:38:51
Azimuth
Unknown
Elevation
Unknown
Doppler factor
Unknown
Orbital elements
Apogee altitude
1,100.507 km
Perigee altitude
950.329 km
Semi-major axis
7,403.555 km
Eccentricity
0.01014
Inclination
32.4387°
RAAN
52.1849°
Arg. of periapsis
301.2724°
True anomaly
58.7898°
Mean anomaly
57.7997°
Eccentric anomaly
58.29408°
Mean motion
3.40708 °/min
Orbital period
105.66 mins
BSTAR
0.000088527
Loading maneuver chart data...
Computing Atmospheric mass density...
Loading historical data...
Loading historical data...
Loading historical data...
Loading historical data...
Loading historical data...
Loading historical data...
Loading historical data...
Other satellites on launch #31 in the year 1961 (1961-11-15 UTC)

Documentation

Showing up to 5 results
|